Погода в Слобожанском

Украина / Днепропетровская область     48°32′01″N   35°04′40″E
темп.,
°C
ветер,
м/с
пор.,
м/с
влажн.,
%
обл.,
%
осадки,
мм/ч
давл.,
гПа
погр.,
м
23 сентября, чт
чт2300:00+8зсз2384100 0.8 1014402
03:00+8зсз2282100 1.1 1014561
06:00+8сз2287100 1.3 1013272
09:00+8сз1283100 1.8 1014278
12:00+9ссз1180100 0.4 1013357
15:00+10ссз127596 0.6 1014442
18:00+11с126751 0.1 1013434
21:00+8сз117969 0.1 101459
24 сентября, пт
пт2400:00+8сз128339 0.1 1014147
03:00+8з238249 0.2 1013218
06:00+7юз358196 0.0 1012238
09:00+10ююз5770100 0.0 1011499
12:00+11ююз61160100 0.0 10101115
15:00+11юз61380100 1.4 10081264
18:00+10юз61190100 4.9 1006850
21:00+10юз5118670 5.6 1006555
25 сентября, сб
сб2500:00+9зюз4109032 0.1 1006324
03:00+9з41086100 0.4 1006459
06:00+10з51082100 0.8 1006614
09:00+10зсз4988100 1.8 1009597
12:00+11зсз598128 0.2 1011877
15:00+13зсз7106987 0.7 10131141
18:00+12зсз5107585 0.1 1015724
21:00+11зюз3877100 0.1 1016251
26 сентября, вс
вс2600:00+12зюз4870100 0.0 1016320
03:00+13зюз41170100 0.0 1015447
06:00+13з51178100 0.0 1015444
09:00+14з51183100 0.3 1015550
12:00+19зсз7105223 0.2 10151707
15:00+20сз710417 0.3 10152035
18:00+17ссз795310 0.0 10161231
21:00+12ссз596813 0.0 1019717
27 сентября, пн
пн2700:00+13ссз685269 0.0 10191328
03:00+11сз49565 0.0 1019525
06:00+9ссз37670 0.0 1020266
09:00+11с46635 0.0 1021536
12:00+15с564373 0.0 10211701
15:00+16ссв453833 0.0 10211846
18:00+15ссв354699 0.0 10221040
21:00+14св365387 0.0 1023548